User: anonymous   Login
Location: South Tamworth Observatory
(43.8246°N, 71.3026°W)
Time: 13:15:01
(UTC-05:00)
Language:

Cosmos 2208 Rocket - Orbit

View from above orbital plane
View from above orbital plane
View from above satellite
View from above satellite

Ground track
Ground track

The orbit data is extracted from the following two-line orbital elements,

1 22081U 92053B   17021.21985116  .00000067  00000-0  33396-4 0  9997
2 22081  74.0454 346.0039 0036171 349.1511  10.8856 14.33361568277785
Epoch (UTC): 21 January 2017 05:16:35
Eccentricity: 0.0036171
inclination: 74.0454°
perigee height: 754 km
apogee height: 806 km
right ascension of ascending node: 346.0039°
argument of perigee: 349.1511°
revolutions per day: 14.33361568
mean anomaly at epoch: 10.8856°
orbit number at epoch: 27778

The dashed part of the orbit path shows where the satellite is in the earth's shadow,  

DLR